Shelton, WA

1:16 PM PST on February 14, 2016 (GMT -0800)
Sanderson

Weather History for KSHN - March, 2014

Change the Weather History Date:

Sunday, March 16, 2014

  Actual Average Record
Temperature  
Mean Temperature 44 °F -  
Max Temperature 48 °F 54 °F 64 °F (1978)
Min Temperature 39 °F 35 °F 27 °F (1971)
Degree Days  
Heating Degree Days 22    
Moisture  
Dew Point 41 °F    
Average Humidity 90    
Maximum Humidity 93    
Minimum Humidity 81    
Precipitation  
Precipitation 0.31 in - - ()
Sea Level Pressure  
Sea Level Pressure 30.08 in    
Wind  
Wind Speed 10 mph (SW)    
Max Wind Speed 16 mph    
Max Gust Speed 20 mph    
Visibility 10 miles    
Events Rain    
Averages and records for this station are not official NWS values.
T = Trace of Precipitation, MM = Missing Value Source: NWS Daily Summary

Daily Weather History Graph

Daily Weather History Graph

Search for Another Location

Airport or City:

Trip Planner

Search our weather history database for the weather conditions in past years. The results will help you decide how hot, cold, wet, or windy it might be!

Date:

Astronomy

Mar. 16, 2014 Rise Set
Actual Time 7:23 AM PDT 7:19 PM PDT
Civil Twilight 6:52 AM PDT 7:50 PM PDT
Nautical Twilight 6:17 AM PDT 8:26 PM PDT
Astronomical Twilight 5:40 AM PDT 9:02 PM PDT
Moon 7:46 PM PDT (3/16) 7:08 AM PDT (3/16)
Length of Visible Light 12h 57m
Length of Day
11h 56m
Full, 100% of the Moon is Illuminated
Mar 16
Full
Mar 23
Last Quarter
Mar 30
New
Apr 7
First Quarter
Apr 15
Full

Hourly Weather History & Observations

Time (PDT) Temp. Windchill Dew Point Humidity Pressure Visibility Wind Dir Wind Speed Gust Speed Precip Events Conditions
12:05 AM 48.9 °F - 46.9 °F 93% 30.20 in 9.0 mi SW 11.5 mph - 0.00 in Rain Light Rain
12:53 AM 48.9 °F - 46.0 °F 90% 30.21 in 10.0 mi SW 10.4 mph - 0.01 in Rain Light Rain
1:53 AM 48.0 °F - 46.0 °F 93% 30.21 in 7.0 mi WSW 9.2 mph - 0.03 in Rain Light Rain
2:41 AM 48.0 °F - 45.0 °F 89% 30.19 in 10.0 mi SSW 5.8 mph - 0.00 in   Overcast
2:53 AM 48.0 °F - 45.0 °F 89% 30.21 in 9.0 mi WSW 4.6 mph - 0.00 in Rain Light Rain
3:53 AM 46.9 °F - 44.1 °F 90% 30.21 in 6.0 mi SW 9.2 mph - 0.03 in Rain Light Rain
4:36 AM 46.9 °F - 45.0 °F 93% 30.20 in 7.0 mi SW 15.0 mph - 0.03 in Rain Light Rain
4:53 AM 46.9 °F - 45.0 °F 93% 30.21 in 7.0 mi WSW 11.5 mph - 0.05 in Rain Light Rain
5:04 AM 46.9 °F - 45.0 °F 93% 30.20 in 7.0 mi WSW 9.2 mph - 0.01 in Rain Light Rain
5:53 AM 46.0 °F 41.4 °F 44.1 °F 93% 30.20 in 10.0 mi SW 9.2 mph - 0.03 in Rain Light Rain
6:53 AM 45.0 °F 39.3 °F 42.1 °F 90% 30.19 in 10.0 mi SW 11.5 mph - 0.02 in Rain Light Rain
7:53 AM 44.1 °F 38.6 °F 41.0 °F 89% 30.19 in 10.0 mi WSW 10.4 mph - 0.00 in Rain Light Rain
8:53 AM 44.1 °F 38.6 °F 41.0 °F 89% 30.19 in 10.0 mi SW 10.4 mph - 0.00 in   Overcast
9:53 AM 45.0 °F 40.1 °F 42.1 °F 90% 30.18 in 10.0 mi SSW 9.2 mph - 0.02 in Rain Light Rain
10:53 AM 44.1 °F 38.6 °F 42.1 °F 93% 30.18 in 10.0 mi SW 10.4 mph - 0.01 in Rain Light Rain
11:53 AM 45.0 °F 39.7 °F 42.1 °F 90% 30.17 in 8.0 mi SW 10.4 mph - 0.01 in Rain Light Rain
12:53 PM 45.0 °F 39.7 °F 42.1 °F 90% 30.15 in 6.0 mi SW 10.4 mph - 0.03 in Rain Light Rain
1:53 PM 45.0 °F 40.6 °F 43.0 °F 93% 30.12 in 10.0 mi WSW 8.1 mph - 0.03 in Rain Light Rain
2:16 PM 46.0 °F 41.0 °F 43.0 °F 89% 30.10 in 9.0 mi WSW 10.4 mph - 0.01 in Rain Light Rain
2:40 PM 45.0 °F 38.9 °F 42.1 °F 90% 30.08 in 10.0 mi SW 12.7 mph - 0.01 in Rain Light Rain
2:53 PM 45.0 °F 39.7 °F 42.1 °F 90% 30.09 in 10.0 mi WSW 10.4 mph - 0.02 in Rain Light Rain
3:11 PM 45.0 °F 40.1 °F 42.1 °F 90% 30.07 in 9.0 mi WSW 9.2 mph - 0.00 in Rain Light Rain
3:53 PM 45.0 °F 39.3 °F 42.1 °F 90% 30.06 in 10.0 mi SW 11.5 mph - 0.01 in Rain Light Rain
4:06 PM 45.0 °F 39.3 °F 41.0 °F 86% 30.04 in 10.0 mi SW 11.5 mph - 0.00 in Rain Light Rain
4:14 PM 45.0 °F 38.5 °F 42.1 °F 90% 30.04 in 10.0 mi SW 13.8 mph - 0.00 in   Overcast
4:53 PM 44.1 °F 37.7 °F 41.0 °F 89% 30.03 in 10.0 mi SW 12.7 mph - 0.00 in Rain Light Rain
5:01 PM 44.1 °F 37.7 °F 41.0 °F 89% 30.02 in 10.0 mi WSW 12.7 mph - 0.00 in Rain Light Rain
5:18 PM 43.0 °F 36.4 °F 41.0 °F 93% 30.02 in 10.0 mi WSW 12.7 mph - 0.00 in Rain Light Rain
5:25 PM 44.1 °F 37.7 °F 41.0 °F 89% 30.01 in 10.0 mi WSW 12.7 mph - 0.00 in Rain Light Rain
5:53 PM 43.0 °F 36.8 °F 41.0 °F 93% 30.01 in 10.0 mi SW 11.5 mph - 0.01 in Rain Light Rain
6:11 PM 43.0 °F 36.8 °F 41.0 °F 93% 29.99 in 10.0 mi SW 11.5 mph - 0.00 in   Overcast
6:53 PM 43.0 °F 35.7 °F 39.9 °F 89% 29.99 in 10.0 mi SW 15.0 mph - 0.00 in Rain Light Rain
7:13 PM 43.0 °F 36.4 °F 39.9 °F 89% 29.97 in 10.0 mi SW 12.7 mph - 0.00 in   Overcast
7:53 PM 43.0 °F 35.4 °F 39.9 °F 89% 29.98 in 10.0 mi WSW 16.1 mph - 0.00 in   Overcast
8:53 PM 42.1 °F 35.7 °F 37.9 °F 85% 29.98 in 10.0 mi WSW 11.5 mph 19.6 mph N/A   Overcast
9:06 PM 41.0 °F 34.7 °F 37.9 °F 89% 29.97 in 10.0 mi West 10.4 mph - N/A   Overcast
9:36 PM 41.0 °F 34.3 °F 37.9 °F 89% 29.98 in 10.0 mi West 11.5 mph - N/A   Overcast
9:49 PM 42.8 °F 38.6 °F 37.4 °F 81% 29.99 in 10.0 mi WNW 6.9 mph - N/A   Overcast
9:53 PM 42.1 °F 39.2 °F 39.0 °F 89% 30.00 in 10.0 mi WNW 4.6 mph - N/A   Overcast
10:11 PM 42.1 °F - 39.0 °F 89% 29.99 in 10.0 mi Calm Calm - N/A   Overcast
10:25 PM 41.0 °F 37.1 °F 37.9 °F 89% 29.99 in 10.0 mi SSW 5.8 mph - N/A   Overcast
10:41 PM 41.0 °F 36.4 °F 37.9 °F 89% 30.00 in 10.0 mi SW 6.9 mph - N/A   Overcast
10:53 PM 41.0 °F 38.0 °F 37.9 °F 89% 30.01 in 10.0 mi SW 4.6 mph - N/A   Overcast
11:21 PM 39.9 °F 34.5 °F 37.0 °F 89% 30.00 in 10.0 mi WSW 8.1 mph - N/A   Mostly Cloudy
11:30 PM 41.0 °F 38.0 °F 37.0 °F 86% 30.00 in 10.0 mi SW 4.6 mph - N/A   Mostly Cloudy
11:38 PM 39.9 °F 37.8 °F 37.0 °F 89% 29.99 in 10.0 mi Variable 3.5 mph - N/A   Mostly Cloudy
11:48 PM 39.2 °F 34.2 °F 37.4 °F 93% 29.99 in 10.0 mi SW 6.9 mph - N/A   Scattered Clouds
11:53 PM 39.9 °F 35.8 °F 37.0 °F 89% 30.01 in 10.0 mi WSW 5.8 mph - N/A   Partly Cloudy